Regional Weather Roundup
Issued by NWS

Home | Current Version | Previous Version | Graphics & Text | Print | Product List | Glossary On
Versions: 1 2 3 4 5 6 7 8 9 10 11 12 13 14 15 16 17 18 19 20 21 22 23 24 25 26 27 28 29 30 31 32 33 34 35 36 37 38 39 40 41 42 43 44 45 46 47 48 49 50
000
ASUS43 KMKX 031900
RWRWI

WISCONSIN REGIONAL WEATHER ROUNDUP
NATIONAL WEATHER SERVICE MILWAUKEE/SULLIVAN WI
200 PM CDT FRI JUL 03 2015

NOTE: "FAIR" INDICATES FEW OR NO CLOUDS BELOW 12,000 FEET WITH NO
SIGNIFICANT WEATHER AND/OR OBSTRUCTIONS TO VISIBILITY.

WIZ001-002-006>008-014>016-023>028-032000-
NORTHWEST WISCONSIN

CITY           SKY/WX    TMP DP  RH WIND       PRES   REMARKS
SUPERIOR ARPT  SUNNY     78  66  67 NW5       29.86F HX  80
ASHLAND        SUNNY     77  64  64 W8        29.87S
HAYWARD        SUNNY     75  58  55 W9G17     29.91F
SIREN          SUNNY     77  58  52 SW7       29.92S
CUMBERLAND     PTSUNNY   72  54  53 W6G16     29.94F
RICE LAKE      PTSUNNY   75  55  50 W3        29.95S
CHETEK         PTSUNNY   75  57  54 SW7       29.94F
LADYSMITH      CLOUDY    74  56  52 SW9       29.96S
EAU CLAIRE     NOT AVBL
MENOMONIE      SUNNY     76  56  50 SW6       29.95F
NEW RICHMOND   SUNNY     75  56  51 SW6       29.96S
OSCEOLA        SUNNY     77  58  51 SW12      29.96F
$$

WIZ003>005-009-010-017-018-032000-
NORTH CENTRAL WISCONSIN

CITY           SKY/WX    TMP DP  RH WIND       PRES   REMARKS
MANITOWISH WTR CLOUDY    70  56  61 SW10      29.92S
ARBOR VITAE    MOSUNNY   72  57  60 W7        29.93S
WOODRUFF       MOSUNNY   72  57  60 W7        29.93S
RHINELANDER    PTSUNNY   73  54  51 SW13      29.94F
EAGLE RIVER    MOSUNNY   72  54  53 W13       29.91F
LAND O LAKES   PTSUNNY   72  55  53 W10G17    29.91F
PHILLIPS       CLOUDY    71  56  58 SW8G17    29.92F
TOMAHAWK       PTSUNNY   73  55  52 W9        29.94F
MEDFORD        MOSUNNY   71  56  58 SW12      29.95F
MERRILL        PTSUNNY   74  57  56 SW9       29.95S
$$

WIZ029-030-035-036-043>047-032000-
CENTRAL WISCONSIN

CITY           SKY/WX    TMP DP  RH WIND       PRES   REMARKS
WAUSAU         PTSUNNY   75  54  47 SW12      29.93F
MOSINEE        MOSUNNY   73  59  60 SW9       29.97F
MARSHFIELD     MOSUNNY   75  56  51 W8        29.96F
STEVENS POINT  PTSUNNY   71  52  52 W6        29.96F
WAUPACA        MOSUNNY   77  51  40 S3        29.96F
WAUTOMA        NOT AVBL
WISC RAPIDS    MOSUNNY   75  53  46 SW9       29.97F
CAMP DOUGLAS   NOT AVBL
$$

WIZ011>013-019>022-031-037>040-048>050-032000-
NORTHEAST WISCONSIN

CITY           SKY/WX    TMP DP  RH WIND       PRES   REMARKS
ANTIGO         PTSUNNY   71  57  63 SW10G17   29.95F
SHAWANO        MOSUNNY   76  52  43 SW7       29.94F
OCONTO         SUNNY     74  55  50 SW9       29.93F
STURGEON BAY   SUNNY     72  55  56 SW9       29.96F
GREEN BAY      SUNNY     75  55  49 SW8       29.94F
MANITOWOC      NOT AVBL
APPLETON       SUNNY     72  52  49 SW7       29.96F
CLINTONVILLE   SUNNY     75  50  41 S7        29.94F
OSHKOSH        SUNNY     74  53  48 W8        29.96F
$$

WIZ032>034-041-042-053>061-032000-
SOUTHWEST WISCONSIN

CITY           SKY/WX    TMP DP  RH WIND       PRES   REMARKS
LA CROSSE      MOSUNNY   76  57  51 CALM      29.96S
SPARTA         MOSUNNY   75  53  46 CALM      29.97F
VIROQUA        MOSUNNY   73  53  48 CALM      29.98F
BOSCOBEL       SUNNY     76  55  48 VRB5      29.97F
PRAIRIE DU CHI SUNNY     73  49  43 S5        29.98S
PLATTEVILLE    SUNNY     73  50  43 S3        29.99S
$$

WIZ056-057-062-063-064-067-068-032000-
SOUTH CENTRAL WISCONSIN

CITY           SKY/WX    TMP DP  RH WIND       PRES   REMARKS
REEDSBURG      SUNNY     73  55  54 CALM      29.97S
BARABOO/DELLS  SUNNY     74  53  48 CALM      29.97S
LONE ROCK      NOT AVBL
MINERAL POINT  SUNNY     73  45  35 CALM      29.99F
MADISON        MOSUNNY   74  53  48 SW5       29.97S
MIDDLETON      SUNNY     74  48  39 W5        29.98F
WATERTOWN      MOSUNNY   73  55  53 W6        29.97S
MONROE         MOSUNNY   72  55  56 CALM      29.98S
JANESVILLE     MOSUNNY   75  54  46 NW3       29.97F
$$

WIZ051-052-058>065-066-070>072-032000-
SOUTHEAST WISCONSIN

CITY           SKY/WX    TMP DP  RH WIND       PRES   REMARKS
MILWAUKEE      PTSUNNY   72  49  44 E10       29.97F
WAUKESHA       MOSUNNY   72  52  49 SE7       29.98F
MILWAUKEE/TIMM MOSUNNY   73  45  35 SE7       29.98S
RACINE         SUNNY     71  54  54 E7        29.99F
BURLINGTON     MOSUNNY   72  52  50 CALM      29.97F
KENOSHA        SUNNY     74  54  49 SE7       29.97F
FOND DU LAC    SUNNY     75  54  47 CALM      29.96F
SHEBOYGAN      SUNNY     74  54  49 S10       29.96F
WEST BEND      PTSUNNY   73  54  49 CALM      29.97S
JUNEAU         SUNNY     72  55  54 S5        29.98S
$$

LSZ147-162-032000-
LAKE SUPERIOR

STATION/POSITION TIME  TEMP    WIND        PRES    WAVE
                       AIR SEA DIR/SP/G            HT/PER
                 (UTC) (F)     (DEG/KT/KT) (MB)    (FT/S)
W MID LAKE BUOY  1750   48 39  230/ 12/ 12 1010.4S   1/ 4
DEVILS ISLAND    1800   65     230/ 12/ 14 1010.8S
SAXON HARBOR     1840   75     210/  6/ 11 1011.2S
$$

LMZ867-665-643>646-032000-
LAKE MICHIGAN

STATION/POSITION TIME  TEMP    WIND        PRES    WAVE
                       AIR SEA DIR/SP/G            HT/PER
                 (UTC) (F)     (DEG/KT/KT) (MB)    (FT/S)
CHAMBERS ISLAND  1800   69     180/  4/ 11 1013.5F
S GREEN BAY BUOY 1730   68 68  210/ 12/ 14 1015.6F
N MID LAKE BUOY  1750   50 44  200/ 10/ 12 1013.7F   1/ 3
NORTHPORT PIER   1800   71     190/  4/ 11 1013.2F
SISTER BAY       1814   71     240/ 12/ 13   N/A
ALGOMA LAKESHORE 1741          210/ 12/ 14   N/A
KEWAUNEE LAKESHO 1800   61     170/  8/  9 1014.0F
SHEBOYGAN LAKESH 1800   60     160/ 13/ 14 1015.1F
PORT WASHINGTON  1800   63     160/  6/  8 1015.9
ATWATER BUOY     1800   61 61  140/  6/  6 1016.8F
MILWAUKEE LAKESH 1800   62     100/  3/  4   N/A
KENOSHA   LAKESH 1800   62      80/  4/  5 1015.2S
$$

TC  - TEMPERATURE IN CELSIUS
VSB - VISIBILITY IN STATUTE MILES
WCI - WIND CHILL INDEX
HX  - HEAT INDEX




USA.gov is the U.S. government's official web portal to all federal, state and local government web resources and services.